STARLINK-11317, 61248

Orbit data source: Space-Track

STARLINK-11317, 61248 is a payload satellite owned by SpaceX/Seattle (US) in LEO that was launched on Wed, 25 Sep 2024 UTC via an FALCON 9 launch vehicle from the Air Force Western Test Range (AFWTR). Payload-class satellites include a variety of spacecraft equipped with specific instruments for various scientific and technological missions. These include communications satellites like Starlink; space stations such as the ISS; scientific satellites like the Hubble; Earth observation satellites from companies like Planet Labs, Umbra, and HawkEye 360; GPS; miniature CubeSats for education and research; and military/defense satellites.

Loading next visibility...
Identifier
61248, 2024-175F
Orbit
LEO
Country
Flag of USUS
Related business
Manufacturer
SpaceX/Seattle
Mission
Operational Commercial Communications
Bus & Motor
STARLINK V2MD, Unknown motor
Mass
960 kg wet, ~910 kg dry
Launch date (UTC)
2024-09-25 (2 years ago)
Launch vehicle
FALCON 9
Launch site
Air Force Western Test Range (AFWTR)
Object type
Payload
Rocket body
Debris
Shape & HBR
Box + 2 Pan, 18.1 m
Radar Cross Section
36.964 m², Large (>1 m²)

Expand to show TLE details & history
Last TLE update: 16 hours ago

TLE from 16 hours ago
0 STARLINK-11317
1 61248U 24175F   26130.21744069  .00000859  00000-0  11950-4 0  9997
2 61248  53.1595 112.6970 0001145  88.4040 271.7109 15.69703876 93036
Epoch: 2026-05-10T05:13Z
TLE epoch observation values (Epoch: 2026-05-10T05:13:06.875Z)
Latitude
-0.00003°
Longitude
166.39464°
Altitude
360.636 km
Speed
7.694 km/s
True Right ascension
07h 30m 47s
True Declination
0° 00' 00"
Sunlit
Object was in daylight at epoch
Visualization orbit readout
Latitude
Unknown
Longitude
Unknown
Altitude
Unknown
Speed
Unknown
Apparent Right ascension
Unknown
Apparent Declination
Unknown
Sunlit
N/A
Visualization observer readout
Local Sidereal Time
05:34:51
Azimuth
Unknown
Elevation
Unknown
Doppler factor
Unknown
Orbital elements
Apogee altitude
360.777 km
Perigee altitude
359.234 km
Semi-major axis
6,738.142 km
Eccentricity
0.00011
Inclination
53.1595°
RAAN
112.697°
Arg. of periapsis
88.404°
True anomaly
271.69779°
Mean anomaly
271.7109°
Eccentric anomaly
271.70434°
Mean motion
3.92404 °/min
Orbital period
91.74 mins
BSTAR
0.00001195
Loading maneuver chart data...
Computing Atmospheric mass density...
Loading historical data...
Loading historical data...
Loading historical data...
Loading historical data...
Loading historical data...
Loading historical data...
Loading historical data...

Documentation

Showing up to 5 results
|